Location: Newark
(23.1300°N, 73.6109°E)
Time: 05:25:02
(UTC+00:00)

NOAA 18 - Pass Details

Date: 24 June 2021
Orbit: 840 x 861 km, 99.0° (Epoch: 27 July)

Event Time Altitude Azimuth Distance (km) Brightness Sun altitude
Exits shadow 17:55:22 13° 286° (WNW) 2,293 7.7 -40.2°
Drops below altitude 10° 17:56:30 10° 297° (WNW) 2,488 8.1 -40.3°
Sets 18:00:02 0° 320° (NW) 3,431 9.1 -40.6°
